Terminal Aerodrome Forecast
Issued by NWS

Home | Current Version | Previous Version | Text Only | Print | Product List | Glossary On
Versions: 1 2 3 4 5 6 7 8 9 10 11 12 13 14 15 16 17 18 19 20 21 22 23 24 25 26 27 28 29 30 31 32 33 34 35 36 37 38 39 40 41 42 43 44 45 46 47 48 49
000
FTUS45 KVEF 300845 AAA
TAFLAS
TAF AMD
KLAS 300845Z 3009/3106 20007KT P6SM FEW140 OVC170
     FM301400 VRB05KT P6SM SCT150 BKN200
     FM301700 06007KT P6SM SCT130 BKN200
     FM302100 13005KT P6SM FEW100 SCT130 BKN200
     FM310200 18009KT P6SM FEW100 SCT130 BKN200=

USA.gov is the U.S. government's official web portal to all federal, state and local government web resources and services.